Location: 22
(39.7117°N, 89.5929°W)
Time: 18:32:37
(UTC-05:00)

Vanguard 3 - Pass Details

Date: 04 February 2023
Orbit: 508 x 3249 km, 33.4° (Epoch: 30 March)

Event Time Altitude Azimuth Distance (km) Brightness Sun altitude
Rises 20:21:29 0° 261° (W) 4,480 11.9 -34.9°
Reaches altitude 10° 20:23:59 10° 258° (WSW) 3,791 11.2 -35.3°
Maximum altitude 20:34:32 67° 179° (S) 2,445 9.3 -37.3°
Enters shadow 20:36:36 62° 142° (SE) 2,653 9.3 -37.7°
Drops below altitude 10° 20:52:12 10° 102° (ESE) 6,008 - -40.6°
Sets 20:57:19 0° 101° (E) 7,170 - -41.6°
